SCP
0 0 0 0 0 0 0 0 0 0 0 0 0 0 0 0 0 0 0 0 0 0 0 0 0 0 0 0 0 0 0 0 0 0 0 0 0 0 0 0 0 0 0 0
0 0 0 0 0 0 0 0 0 0 0 0 0 0 0 0 0 0 0 0 0 0 0 0 0 0 0 0 0 0 0 0 0 0 0 0 0 0 0 0 0 0 0 0
0 0 0 0 0 0 0 0 0 0 0 0 0 0 0 0 0 0 0 0 0 0 0 0 0 0 0 0 0 0 0 0 0 0 0 0 0 0 0 0 0 0 0 0
0 0 0 0 0 0 0 0 0 0 0 0 0 0 0 0 0 0 0 0 0 0 0 0 0 0 0 0 0 0 0 0 0 0 0 0 0 0 0 0 0 0 0 0
0 0 0 0 0 0 0 0 0 0 0 0 0 0 0 0 0 0 0 0 0 0 0 0 0 0 0 0 0 0 0 0 0 0 0 0 0 0 0 0 0 0 0 0
0 0 0 0 0 0 0 0 0 0 0 0 0 0 0 0 0 0 0 0 0 0 0 0 0 0 0 0 0 0 0 0 0 0 0 0 0 0 0 0 0 0 0 0
0 0 0 0 0 0 0 0 0 0 0 0 0 0 0 0 0 0 0 0 0 0 0 0 0 0 0 0 0 0 0 0 0 0 0 0 0 0 0 0 0 0 0 0
0 0 0 0 0 0 0 0 0 0 0 0 0 0 0 0 0 0 0 0 0 0 0 0 0 0 0 0 0 0 0 0 0 0 0 0 0 0 0 0 0 0 0 0
0 0 0 0 0 0 0 0 0 0 0 0 0 0 0 0 0 0 0 0 0 0 0 0 0 0 0 0 0 0 0 0 0 0 0 0 0 0 0 0 0 0 0 0
0 0 0 0 0 0 0 0 0 0 0 0 0 0 0 0 0 0 0 0 0 0 0 0 0 0 0 0 0 0 0 0 0 0 0 0 0 0 0 0 0 0 0 0
0 0 0 0 0 0 -0 -0 0 0 0 0 0 0 0 0 0 0 0 0 0 0 0 0 0 0 0 0 0 0 0 0 0 0 0 0 0 0 0 0 0 0 0 0
0 0 -0 -0 0 -0 -0 -0 0 0 0 0 0 0 0 0 0 0 0 0 0 0 0 0 0 0 0 0 0 0 0 0 0 0 0 0 0 0 0 0 0 0 0 0
0 -0 -0 -0 -0 -0 -0 -0 0 0 0 0 0 0 0 0 0 0 0 0 0 0 0 0 0 0 0 0 0 0 0 0 0 0 0 0 0 0 0 0 0 0 0 0
-0 -0 -0 -0 -0 0 0 0 0 0 0 0 0 0 0 0 0 0 0 0 0 0 0 0 0 0 0 0 0 0 0 0 0 0 0 0 0 0 0 0 0 0 0 0
-0 -0 -0 -0 0 0 0 0 0 0 0 0 0 0 0 0 0 0 0 0 0 0 0 0 0 0 0 0 0 0 0 0 0 0 0 0 0 0 0 0 0 0 0 0
-0 -0 -0 0 0 0 0 0 0 0 0 0 0 0 0 0 0 0 0 0 0 0 0 0 0 0 0 0 0 0 0 0 0 0 0 0 0 0 0 0 0 0 0 0
-0 -0 -0 0 0 0 0 0 0 0 0 0 0 0 0 0 0 0 0 0 0 0 0 0 0 0 0 0 0 0 0 0 0 0 0 0 0 0 0 0 0 0 0 0
-0 -0 0 0 0 0 0 0 0 0 0 0 0 0 0 0 0 0 0 0 0 0 0 0 0 0 0 0 0 0 0 0 0 0 0 0 0 0 0 0 0 0 0 0
0 0 0 0 0 0 0 0 0 0 0 0 0 0 0 0 0 0 0 0 0 0 0 0 0 0 0 0 0 0 0 0 0 0 0 0 0 0 0 0 0 0 0 0
0 0 0 0 0 0 0 0 0 0 0 0 0 0 0 0 0 0 0 0 0 0 0 0 0 0 0 0 0 0 0 0 0 0 0 0 0 0 0 0 0 0 0 0
0 0 0 0 0 0 0 0 0 0 0 0 0 0 0 0 0 0 0 0 0 0 0 0 0 0 0 0 0 0 0 0 0 0 0 0 0 0 0 0 0 0 0 0
0 0 0 0 0 0 0 0 0 0 0 0 0 0 0 0 0 0 0 0 0 0 0 0 0 0 0 0 0 0 0 0 0 0 0 0 0 0 0 0 0 0 0 0
0 0 0 0 0 0 0 0 0 0 0 0 0 0 0 0 0 0 0 0 0 0 0 0 0 0 0 0 0 0 0 0 0 0 0 0 0 0 0 0 0 0 0 0
0 0 0 0 0 0 0 0 0 0 0 0 0 0 0 0 0 0 0 0 0 0 0 0 0 0 0 0 0 0 0 0 0 0 0 0 0 0 0 0 0 0 0 0
0 0 0 0 0 0 0 0 0 0 0 0 0 0 0 0 0 0 0 0 0 0 0 0 0 0 0 0 0 0 0 0 0 0 0 0 0 0 0 0 0 0 0 0
0 0 0 0 0 0 0 0 0 0 0 0 0 0 0 0 0 0 0 0 0 0 0 0 0 0 0 0 0 0 0 0 0 0 0 0 0 0 0 0 0 0 0 0
0 0 0 0 0 0 0 0 0 0 0 0 0 0 0 0 0 0 0 0 0 0 0 0 0 0 0 0 0 0 0 0 0 0 0 0 0 0 0 0 0 0 0 0
Wind_Speed
7 6 5 8 9 9 10 11 11 11 11 11 8 7 6 5 5 5 6 5 5 5 5 5 5 5 5 4 3 3 3 3 3 3 3 3 3 3 3 2 2 2 2 2
6 6 6 9 11 11 12 12 13 13 14 8 6 5 6 5 5 5 6 6 6 6 5 5 5 5 5 4 4 3 3 3 3 3 3 3 3 3 2 2 2 2 2 2
5 3 5 10 9 10 8 8 9 12 10 6 6 6 7 6 6 6 6 6 7 6 6 6 5 5 5 4 4 3 3 3 2 3 3 3 3 2 2 2 2 2 2 2
3 2 9 3 0 4 7 8 8 8 7 7 7 7 7 6 6 7 7 7 6 6 6 6 5 5 5 4 3 3 3 2 2 2 3 3 3 2 2 2 2 2 2 2
3 5 9 5 3 3 4 7 6 7 7 7 7 7 6 3 5 7 7 7 6 6 6 5 5 4 4 3 3 3 3 3 3 3 3 3 3 3 2 2 2 2 2 2
4 6 8 3 1 0 2 6 2 4 5 5 6 7 5 4 6 7 6 5 5 5 5 4 4 4 3 3 3 3 3 3 3 3 3 3 3 3 2 2 2 2 2 2
7 7 8 1 1 3 4 3 0 3 5 5 6 7 7 7 7 6 6 5 5 5 4 4 4 3 3 3 3 3 3 3 3 3 3 3 3 2 2 1 1 2 2 2
5 7 7 3 4 5 3 2 3 4 5 6 7 8 7 7 6 6 5 5 5 4 4 4 3 3 3 3 3 3 2 2 2 3 2 2 2 1 1 1 1 1 1 1
6 5 2 3 4 4 3 4 4 5 5 5 6 7 7 7 6 5 5 5 4 4 4 4 3 3 3 3 2 2 2 2 2 2 1 1 1 1 1 0 1 1 1 1
6 8 6 6 7 6 5 6 6 6 6 6 7 8 7 6 6 5 5 4 4 4 4 4 3 3 3 3 2 2 2 2 1 1 1 1 1 1 1 1 1 1 1 2
8 7 6 6 6 6 6 6 6 6 6 6 7 7 7 6 5 5 4 4 4 4 4 4 4 3 3 2 2 2 2 1 1 1 1 1 1 1 2 2 2 2 2 2
7 5 5 5 4 5 6 6 6 6 6 6 6 7 7 6 5 5 4 4 4 4 4 4 4 3 3 2 2 2 1 1 1 1 1 1 1 1 2 2 4 4 3 3
5 4 5 5 5 5 5 6 6 6 6 6 5 5 5 5 5 4 5 4 4 4 4 4 3 2 1 1 1 1 1 1 1 1 1 1 1 2 2 2 2 3 4 4
5 3 5 5 5 5 5 5 4 5 5 5 4 4 4 4 4 4 4 4 3 3 3 3 2 2 1 1 1 1 1 1 1 1 1 1 1 1 1 2 2 2 2 4
5 5 5 4 4 4 3 3 4 4 4 4 3 3 3 3 4 4 4 3 2 3 2 2 2 2 1 1 1 1 1 1 0 0 1 1 1 1 1 1 2 2 2 2
4 3 3 4 5 4 4 4 4 4 4 4 3 3 3 3 3 3 3 2 2 3 2 2 2 2 1 1 1 1 1 1 1 0 0 0 0 0 1 1 1 1 2 2
2 3 4 5 5 5 4 4 4 4 4 4 4 3 3 2 2 3 3 2 2 3 3 2 2 2 1 1 1 1 1 1 0 0 0 0 0 1 1 1 1 1 2 3
4 4 4 4 4 4 4 3 3 3 3 3 3 2 2 2 3 3 3 3 2 2 2 2 2 1 1 1 1 1 1 0 0 0 0 0 1 1 1 1 1 1 1 2
2 2 2 3 3 2 3 3 3 3 2 2 2 2 2 3 3 3 2 2 2 2 2 2 2 1 1 1 0 1 1 0 0 0 0 0 1 1 0 1 1 1 1 2
1 1 1 1 1 1 2 2 2 2 2 2 1 2 2 2 2 2 2 1 2 2 2 2 1 1 1 1 0 0 1 1 1 0 0 1 1 1 1 1 1 1 1 1
1 1 1 1 1 1 1 1 1 2 2 1 1 2 2 3 2 1 1 1 2 2 2 2 1 1 1 0 0 0 1 1 1 1 1 1 1 1 1 1 1 1 1 2
1 1 1 1 1 1 2 1 1 2 2 1 1 1 1 2 2 1 1 2 2 3 2 1 1 1 1 0 0 0 0 0 0 1 1 1 1 1 1 1 1 1 1 2
1 1 0 1 1 1 2 2 1 1 1 1 1 1 1 2 2 1 2 2 2 3 2 1 2 2 1 1 0 0 0 1 1 1 1 1 1 1 1 2 1 2 2 2
0 0 0 1 1 1 1 2 2 1 1 2 2 1 1 1 1 1 2 3 4 4 2 2 2 2 2 1 0 0 1 1 1 1 1 1 1 1 2 1 2 2 2 2
1 0 0 0 0 1 1 2 1 1 1 1 2 2 1 1 1 2 2 2 3 3 2 2 3 3 1 1 0 1 1 1 1 1 1 1 1 1 1 1 2 2 2 2
1 1 1 1 1 1 1 1 1 1 1 1 1 2 1 1 1 2 2 2 2 2 2 2 2 2 1 1 1 1 1 1 1 1 1 2 2 2 2 2 2 2 2 2
1 0 0 0 1 1 1 1 1 1 1 1 1 2 2 2 2 2 2 2 2 2 2 2 1 1 1 1 1 1 1 1 1 1 2 2 2 2 2 3 2 2 2 2
Wind_Direction
267 279 269 261 253 236 233 245 254 267 271 281 291 295 297 304 308 308 312 317 318 315 313 312 313 314 311 310 306 296 291 297 306 310 306 297 291 285 278 275 273 272 273 278
263 260 265 269 260 246 246 249 252 266 273 285 296 294 293 298 298 301 308 314 315 312 309 306 307 310 312 313 308 297 295 304 316 317 310 303 297 289 278 276 276 271 265 271
268 292 278 261 245 233 238 237 241 252 267 287 294 295 297 293 288 295 303 305 306 308 301 298 298 297 296 299 302 301 304 308 314 312 308 304 300 289 278 280 288 275 270 273
271 268 252 269 306 231 242 256 250 258 272 284 295 306 296 281 282 292 297 298 301 305 302 299 296 296 296 298 298 298 300 303 311 310 304 302 297 287 287 285 286 285 274 275
236 260 274 273 225 214 237 271 250 248 266 287 308 299 282 277 291 294 292 295 298 302 302 299 294 294 291 290 291 290 293 301 306 304 297 294 293 290 288 284 283 285 273 270
225 254 265 285 120 165 242 264 223 239 267 288 298 287 297 320 304 298 297 298 303 307 305 296 295 289 277 279 282 287 296 301 300 297 289 286 287 288 285 279 271 279 280 275
232 251 266 280 136 179 231 290 325 258 266 274 275 285 307 306 300 297 296 300 304 304 302 299 296 282 271 276 284 294 301 301 299 293 289 286 286 285 282 283 285 278 280 284
211 231 251 147 165 217 273 323 275 276 275 277 282 291 293 295 297 300 303 306 307 304 301 299 289 277 276 283 296 300 300 295 295 296 301 298 294 295 291 282 275 290 294 300
219 239 301 208 233 265 278 267 274 276 283 282 283 287 290 293 296 298 300 303 303 299 298 297 288 278 279 292 298 292 288 285 286 296 309 312 308 308 302 293 296 308 307 306
255 259 260 258 259 262 262 267 279 280 278 275 281 285 287 291 292 293 296 297 300 297 296 299 300 292 284 285 280 272 273 281 285 300 324 335 322 316 320 325 313 309 309 309
254 269 281 261 247 259 272 272 275 280 277 273 276 280 283 286 285 286 289 293 291 287 288 294 298 293 287 273 256 257 262 269 292 310 318 324 324 328 324 322 324 314 305 302
249 248 250 271 274 270 267 269 274 279 283 280 276 278 280 282 281 281 282 287 287 285 285 291 291 284 282 266 242 241 247 269 298 312 321 320 329 344 357 330 337 334 326 318
266 280 275 279 280 272 271 279 284 279 275 281 284 278 277 280 281 280 278 276 275 276 280 284 283 281 286 271 238 232 243 265 279 289 309 323 334 340 347 354 359 358 346 334
256 261 269 267 276 284 285 292 294 290 285 282 282 282 279 283 285 283 283 284 281 274 273 278 279 283 296 281 249 240 242 240 257 268 298 310 320 329 332 334 341 351 351 348
256 255 261 281 289 293 299 297 290 289 295 298 291 284 282 284 287 294 301 304 299 287 285 282 273 284 300 274 247 240 240 227 248 281 294 301 313 329 335 326 331 336 340 350
273 268 259 266 273 282 289 285 278 281 290 296 296 298 299 294 293 299 307 310 297 294 298 287 280 295 295 273 255 242 235 249 289 260 256 283 311 332 333 329 333 334 342 349
224 253 263 267 267 270 270 271 272 273 280 285 294 304 306 305 303 306 313 315 300 290 287 279 287 302 290 262 247 237 226 197 209 232 244 291 296 290 297 308 321 329 336 342
254 259 255 254 254 258 268 274 277 279 279 287 299 300 296 295 295 303 315 320 313 307 299 297 295 294 285 271 241 228 214 216 215 219 244 273 293 292 284 291 308 319 332 337
269 270 275 270 261 251 259 271 281 289 298 300 293 287 289 293 296 301 309 305 293 305 324 321 310 308 290 272 269 194 191 193 206 223 236 264 294 295 294 298 312 323 332 334
294 298 295 300 303 276 268 282 294 302 304 297 287 292 303 307 310 312 312 298 302 315 318 316 320 312 297 258 255 171 184 197 202 213 238 253 272 282 288 305 313 312 318 324
295 306 303 306 319 321 308 300 293 298 308 297 270 280 294 306 314 310 305 315 339 333 323 321 330 309 291 309 208 187 196 205 215 225 238 251 270 280 285 293 308 312 317 317
289 287 300 321 336 338 337 331 315 303 309 312 301 299 305 310 321 319 289 289 326 332 334 321 308 307 334 34 79 267 250 253 251 250 257 266 269 268 274 287 294 305 307 307
251 252 263 305 310 324 339 339 327 307 303 302 297 288 287 296 299 299 318 330 326 331 335 320 314 321 1 60 33 253 249 253 262 267 266 268 273 272 270 277 283 287 291 298
178 182 314 10 24 4 336 335 334 324 315 309 307 294 286 299 309 297 304 325 337 338 341 336 346 2 19 22 338 267 258 254 254 257 260 261 262 264 265 268 275 282 285 291
162 151 121 125 198 288 301 319 335 343 348 342 337 326 308 294 293 318 326 325 331 340 341 346 358 2 6 351 324 286 273 262 259 247 244 249 254 259 260 264 270 276 281 285
176 202 231 252 264 271 277 284 304 329 340 342 345 343 344 341 328 321 325 331 333 344 349 347 349 353 350 335 316 297 286 284 283 272 258 255 254 257 261 263 269 271 274 277
149 167 235 271 281 264 257 255 271 297 308 311 321 334 344 346 348 349 345 344 351 354 351 348 348 345 338 328 319 310 299 288 276 267 261 257 255 254 256 258 263 267 270 272